Location: Carimao
(10.4546°N, 66.7419°W)
Time: 07:39:08
(UTC+00:00)

Cosmos 1844 Rocket - Pass Details

Date: 19 May 2024
Orbit: 825 x 842 km, 71.0° (Epoch: 22 June)

Event Time Altitude Azimuth Distance (km) Brightness Sun altitude
Rises 23:08:37 0° 340° (NNW) 3,351 6.5 -6.8°
Reaches altitude 10° 23:11:03 10° 337° (NNW) 2,419 5.8 -7.4°
Maximum altitude 23:16:33 69° 255° (WSW) 882 3.0 -8.6°
Drops below altitude 10° 23:22:05 10° 172° (S) 2,427 4.8 -9.9°
Sets 23:24:32 0° 170° (S) 3,363 5.5 -10.4°
